Member area
Imprimable
Houffalize, 03-05/05/2019, BEL - Roc d'Ardenne
List of reports > Rando Roc Night - Result
Search: Page: [1]
109 Entries
 
Complains are not accepted anymore. Results are final.
Category
PosNrNameAgeNATTeamTimeTkmMoy.PlaceNameCity
1.5149XJEANNEROD Patrick/christineFRA1:18:082:51 21.121ebkDOMMARTIN
2.5170FOURIER Pierre-Luc37FRA1:24:063:04 19.621homANDRESY
3.5174MAGERMANS Vincent50BEL1:26:233:09 19.102homLIMBOURG
4.5101BUKOWSKI Franck44FRA1:27:583:12 18.762ebkLIGNY EN CAMBRESIS
5.5159FREDDY Schmetz54BEL1:35:473:29 17.233homLONTZEN
6.5180GAUTHIER Claude59BEL1:39:263:37 16.593ebkVILLERS/SUR/LESSE
7.5111PORTIER EricFRA1:39:593:39 16.501xxxETREPILLY
8.5119EZINE Aurélien40FRAASL VARREDDES1:40:023:39 16.504homEMERAINVILLE
9.5130LESUEUR Arnaud40FRA1:40:023:39 16.505homMEAUX
10.5113COUSSEGAL Marc46FRA1:41:003:41 16.346homANNET SUR MARNE
11.5131AUBRIOT David48FRA1:43:073:45 16.007homCROUY SUR OURCQ
12.5185SOLLAZZZO Fabrice51FRA1:43:113:46 15.998homGOURNAY SUR MARNE
13.5112DECAEN Christophe51FRA1:43:403:47 15.929homLIZY SUR OURCQ
14.5110MATTERNE Ringo36BEL1:43:563:47 15.8810homLINTER
15.5123DEROYE Davy42BEL1:43:563:47 15.8811homZOUTLEEUW
16.5142GOBLET Jean-Philippe40BEL1:44:083:48 15.8512homSOMZÉE BELGIQUE
17.5114CAVALIER Dominique50FRA1:44:183:48 15.8213homNEUILLY PLAISANCE
18.5154MEEUS David40BEL1:44:563:49 15.7214homZUTENDAAL
19.5183VAN GOETHEM Hans45BEL1:45:133:50 15.6815homHAMME
20.5190MALFLIET Koen45BEL1:45:163:50 15.6816homHAMME
21.5179GAUTHIER Quentin32BEL1:45:313:51 15.644ebkCUSTINNE
22.40123GIROT Marc34FRA1:46:233:53 15.5117homMAROMME LA MAINE
23.5105DUCASTELLE Rudy36FRAROISEL VTT1:46:463:53 15.4618homTEMPLEUX LE GUÉRARD
24.5157VAN DER BEETEN Nicolas29BEL1:47:043:54 15.4119homAMAY
25.5175PAREYN Jan54BEL1:48:103:56 15.2620homVLAMERTINGE
26.5132DEFLESSELLES Gregory37FRA1:48:283:57 15.2121homTETEGHEM
27.5129BRUNEEL Kristoff53DEU1:49:203:59 15.095ebkDIKSMUIDE
28.5107DAMBRE Pierre Antoine39FRA1:52:284:06 14.6722homTOURNAI
29.5120WITTEVRONGEL Lukas29BEL1:52:444:06 14.6423homLIEVEGEM
30.5106BOUCHER Alexis40FRA1:53:104:07 14.5824homMONS EN PEVELE
31.5153CLAEYS Jeroenj35BEL1:54:414:11 14.3925homTEMSE
32.5155SEGERS Wim42BEL1:55:254:12 14.3026homBEVEREN
33.5156VAN MELE Koen43BEL1:55:264:12 14.3027homHAMME (VL.)
34.5176DELEFORTRIE Thibaut33FRA1:57:264:17 14.0528homSEQUEDIN
35.5160AVEZ Baptiste42FRA1:57:284:17 14.0529homTOURCOING
36.5177BAKKER Rene32NLD1:57:524:18 14.0030homALKMAAR
37.5178VISSER Erik31NLD1:57:524:18 14.0031homALKMAAR
38.5145CHERMEUX Jean Pierre40FRA1:58:104:18 13.9732homRAMEGNIES CHIN
39.40133DEWEIRDT Anthony31BEL1:58:374:19 13.9133homLOCHRISTI
40.5165CARPENTIER Nicolas34FRA1:59:034:20 13.8634homBEAURAINVILLE
41.5187CORMAND Mickael38FRA1:59:514:22 13.7735homJUGON LEZS LACS
42.5188CORMAND Mickael38FRA1:59:514:22 13.7736homJUGON LEZS LACS
43.5164CARON David33FRA2:00:494:24 13.6637homRANG DU FLIERS
44.5184FDEMARET Romy34BEL2:01:044:25 13.631damSTAVELOT
45.40130CNUDDE Glenn30BEL2:01:364:26 13.5738homGENT
46.5173REMACLE Michel56BEL2:03:004:29 13.4139homLES AVINS
47.5172OTTO Pierre46BEL2:03:024:29 13.4140homLES AVINS
48.5171BALDINI Jerome42BEL2:03:054:29 13.416ebkMARCHIN
49.5162HUBERT Martin41BEL2:03:474:31 13.3341homDION-VALMONT
50.5161HAILLUS Jean-Charles40FRA2:03:474:31 13.3342homDION-VALMONT
51.5108MILLE Norbert32FRA2:05:134:34 13.1843homMONTIER EN DER
52.40116HOEFFLER Aurelien31FRA2:05:514:35 13.1144homTRÉMERY
53.40132MIALET Christophe45FRA2:06:274:36 13.0545homLE CHATELET EN BRIE
54.5182FPREGNOLATO Mara35ITA2:09:484:44 12.712damAACHEN
55.40115MAITRE Claude68FRA2:10:114:45 12.6746homSAINT VIT
56.40117MARTIN Benoit49FRA2:10:124:45 12.6747homEVANS
57.5139HENRY Nicolas41BEL2:12:314:50 12.4548homNIMY
58.5140VAN CEULEBROECK Geoffrey40BEL2:13:114:51 12.3949homMONS
59.40122PETRUCCI Ludovic42BEL2:14:124:53 12.3050homMONS
60.5115THUYS Steve41BEL2:17:325:01 12.007ebkTIELT (VL.BR.)
61.5138SUEUR Laurent46FRA2:17:515:01 11.9751homBULLY-LES-MINES
62.5152CLAES Tom33BEL2:18:445:03 11.8952homLINTER
63.5151DERACHE Nicolas54FRA2:21:035:08 11.7053homLOUVIGNIES QUESNOY
64.5148FPOULAIN Camille34FRA2:21:035:08 11.703damPARIS
65.5124PINOLI Olivier44FRA2:22:385:12 11.5754homMARBACHE
66.5125PINOLI Jean-Marie71FRA2:22:395:12 11.5755homMARBACHE
67.5116PIERARD Tom42BEL2:23:365:14 11.4956homNIVELLES
68.5118VAN VOORHUYZEN Bernard45BEL2:23:375:14 11.498ebkVIEUX GENAPPE
69.5117PIERARD Marc67BEL2:23:385:14 11.499ebkRHODE-SAINT-GENÈSE
70.5147SCAILLIEREZ Pierre30FRA2:26:245:20 11.2757homESTAIRES
71.5146DELVALLEE Remi34FRA2:26:255:20 11.2758homLYNDE
72.5136DIMITRI Szostak47BEL2:26:415:21 11.2559homOOSTDUINKERKE
73.5158PHILIPS Cé36BEL2:26:415:21 11.2560homNIEUWPOORT
74.5137DAMIEN Pacco33BEL2:27:255:22 11.1961homSINT-IDESBALD
75.40125CLAMAR Cedric45BEL2:29:065:26 11.0762homAISCHE EN REFAIL
76.40126CLAMAR Aurelien21BEL2:29:165:26 11.0563homAISCHE EN REFAIL
77.40127WATERVAL Tom27BEL2:29:165:26 11.0564homLOYERS
78.5186HULET Philippe Roland43BEL2:32:305:33 10.8265homORP-JAUCHE
79.5144PARATE Noël51BEL2:32:415:34 10.8166homMELIN
80.5143DEPAS Frederic49BEL2:32:495:34 10.8067homMERDORP
81.5122PARSAT Franck45FRA2:34:245:37 10.6968homSAINT-SAULVE
82.5121WEISSLAND Edgar22FRA2:34:265:37 10.6969homCAMBRAI
83.40121VAN LANDEGHEM Joran25BEL2:39:595:50 10.3170homSINT-GILLIS-WAAS
84.40120ROMBAUT Lennart26BEL2:40:005:50 10.3171homDE PINTE
85.40134DESCAMPS Arthur25BEL2:40:015:50 10.3172homOOSTAKKER
86.40103NYCKEES Wouter25BEL2:40:015:50 10.3173homGENTBRUGGE
87.40104VANBESELAERE Lars25BEL2:40:085:50 10.3074homGRAND-HALLEUX
88.40102GEERAERT Jean-Michel60FRA2:42:035:54 10.1875homCHARENTON-LE-PONT
89.40101FBOITTE Virginie49FRA2:42:045:54 10.184damCHARENTON LE PONT
90.5133DEFLESSELLES Cedric36FRA2:44:325:59 10.0376homGHYVELDE
91.5102BUSSIAN Jean-Marie36FRA2:44:546:00 10.0177homDUNKERQUE
92.5141AUGUSTIN Christophe38FRA2:45:176:01 9.9878homMEAUX
93.40106DARLE Théotime17FRA2:45:226:01 9.9879homST JEAN LES DEUX JUMEAUX
94.40107RETORY Xavier29FRA2:49:196:10 9.7580homVILLENOY
DNF40112BARELIER Fabien42FRAhomASNIÈRES SUR SEINE
DNF5134CARTIER Adrien34FRAhomROSENDAEL
DNF40128CHRYSTOPHE Cucheval32FRAhomMANCAS
DNF40110DAUPHIN Thierry56FRAhomASNIERES SUR SEINE
DNF5109DERUYTTERE Bernard43BELhomRUDDERVOORDE
DNF40114ERAKOVIC Zoran46FRAhomARGENTEUIL
DNF5135FEVRIER Enrique39FRAhomCHATEAU-GONTIER
DNF40119HUBENS Jean-Philippe47BELhomLOUVAIN-LA-NEUVE
DNF40109PAILLET Matthieu34FRAhomETTERBEEK
DNF40113PASTRE Maxime59FRAhomMEULERS
DNF5127PATY Thomas26FRAhomVAUX LE PÉNIL
DNF5126PATY Vincent58FRAebkVAUX LE PÉNIL
DNF40108SCHEERS Jerome34BELhomINCOURT
DNF5189FTITERA Stéphanie33FRAdamHOUFFALIZE
DNF5181VAN DER VLOEDT Rudy Joseph61BELhomBLANKENBERGE
DNF: did not finish; DSQ: disqualified; Speed in km/h
Page: [1]